Torna al catalogo

STARLINK-4079

AttivoComunicazioniVLEO
NORAD 52666·PAYLOAD·🇺🇸 United States

Lanciato May 18, 2022 da Cape Canaveral Space Force Station

Loading…

Prossimi Passaggi (prossime 24 ore)

TLE

AggiornatoSource: CelesTrak SupGP

Epoca: Sep 14, 2026, 21:57 UTC

1 52666C 22053L   26257.91506944 -.00003204  00000+0 -20093-3 0  2571
2 52666  53.1596  23.6409 0001171  79.6622 110.0412 15.08831044    16

Traccia STARLINK-4079 in tempo reale con AllMySat

Download on the App Store